BAW974 EGLL-LIMJ

Flight info

Callsign BAW974
Flight time 1h 50m
Altitude 37000
Route DET L6 DVR UL9 KONAN UL607 REMBA M624 DIK N852 SUTAL DCT GTQ DCT DEVDI DCT ODINA DCT SRN/N0388F190 M858 VOG
Aircraft A320/M-SDE3FGHIRWY/LB1

Departure

Time 2026-04-21 17:34
Airport London Heathrow Airport (EGLL)

Arrival

Time 2026-04-21 19:25
Airport Genoa Cristoforo Colombo Airport (LIMJ)
Time Latitude Longitude Altitude Speed Heading
2026-04-21 17:20 51.47233 -0.48585 86 ft 0 kts 270°
2026-04-21 17:27 51.47233 -0.48581 89 ft 2 kts 270°
2026-04-21 17:27 51.47233 -0.48552 88 ft 3 kts 270°
2026-04-21 17:27 51.47233 -0.48520 89 ft 3 kts 272°
2026-04-21 17:28 51.47230 -0.48491 89 ft 3 kts 306°
2026-04-21 17:28 51.47218 -0.48474 90 ft 3 kts 350°
2026-04-21 17:28 51.47207 -0.48473 90 ft 2 kts 360°
2026-04-21 17:28 51.47194 -0.48473 89 ft 1 kts 360°
2026-04-21 17:30 51.47196 -0.48473 89 ft 2 kts 360°
2026-04-21 17:30 51.47257 -0.48448 87 ft 16 kts 46°
2026-04-21 17:30 51.47195 -0.48358 86 ft 17 kts 179°
2026-04-21 17:31 51.47059 -0.48356 89 ft 21 kts 179°
2026-04-21 17:31 51.46908 -0.48354 87 ft 24 kts 180°
2026-04-21 17:31 51.46765 -0.48363 86 ft 18 kts 204°
2026-04-21 17:31 51.46679 -0.48468 86 ft 15 kts 179°
2026-04-21 17:32 51.46642 -0.48468 86 ft 6 kts 180°
2026-04-21 17:32 51.46589 -0.48467 86 ft 0 kts 180°
2026-04-21 17:32 51.46582 -0.48467 86 ft 3 kts 180°
2026-04-21 17:32 51.46532 -0.48467 86 ft 12 kts 180°
2026-04-21 17:33 51.46479 -0.48358 87 ft 15 kts 90°
2026-04-21 17:33 51.46480 -0.48254 89 ft 0 kts 89°
2026-04-21 17:33 51.46480 -0.48196 88 ft 23 kts 89°
2026-04-21 17:34 51.46482 -0.47543 85 ft 89 kts 89°
2026-04-21 17:34 51.46488 -0.46277 89 ft 137 kts 90°
2026-04-21 17:34 51.46492 -0.44660 557 ft 141 kts 90°
2026-04-21 17:34 51.46510 -0.43081 1250 ft 143 kts 86°
2026-04-21 17:35 51.46440 -0.41351 1486 ft 172 kts 105°
2026-04-21 17:35 51.45730 -0.39698 1865 ft 188 kts 125°
2026-04-21 17:35 51.44839 -0.38007 2182 ft 210 kts 124°
2026-04-21 17:35 51.44009 -0.35992 2528 ft 230 kts 111°
2026-04-21 17:36 51.43515 -0.33514 2877 ft 235 kts 99°
2026-04-21 17:36 51.43149 -0.30975 3647 ft 237 kts 100°
2026-04-21 17:36 51.42809 -0.28624 4584 ft 237 kts 100°
2026-04-21 17:36 51.42442 -0.26023 5511 ft 241 kts 101°
2026-04-21 17:37 51.42081 -0.23377 6420 ft 246 kts 101°
2026-04-21 17:37 51.41714 -0.20675 7284 ft 250 kts 101°
2026-04-21 17:37 51.41463 -0.18823 7842 ft 253 kts 101°
2026-04-21 17:37 51.40960 -0.15125 8922 ft 260 kts 101°
2026-04-21 17:38 51.40569 -0.12260 9765 ft 264 kts 101°
2026-04-21 17:38 51.40173 -0.09366 10518 ft 271 kts 101°
2026-04-21 17:38 51.39750 -0.06294 10758 ft 294 kts 101°
2026-04-21 17:38 51.39292 -0.02975 10941 ft 317 kts 102°
2026-04-21 17:39 51.38803 0.00531 11330 ft 331 kts 101°
2026-04-21 17:39 51.38298 0.04140 12021 ft 334 kts 101°
2026-04-21 17:39 51.37789 0.07797 12648 ft 339 kts 101°
2026-04-21 17:39 51.37271 0.11520 13285 ft 345 kts 102°
2026-04-21 17:40 51.36743 0.15286 13953 ft 349 kts 101°
2026-04-21 17:40 51.36207 0.19090 14626 ft 351 kts 101°
2026-04-21 17:40 51.35675 0.22857 15112 ft 358 kts 102°
2026-04-21 17:40 51.35120 0.26784 15614 ft 364 kts 101°
2026-04-21 17:41 51.34558 0.30746 16202 ft 367 kts 102°
2026-04-21 17:41 51.33991 0.34747 16762 ft 372 kts 100°
2026-04-21 17:41 51.33414 0.38799 17284 ft 377 kts 102°
2026-04-21 17:41 51.32823 0.42926 17788 ft 383 kts 101°
2026-04-21 17:42 51.32223 0.47108 18586 ft 388 kts 101°
2026-04-21 17:42 51.31614 0.51340 19112 ft 393 kts 101°
2026-04-21 17:42 51.30995 0.55636 19558 ft 400 kts 100°
2026-04-21 17:42 51.30360 0.60018 19996 ft 407 kts 100°
2026-04-21 17:43 51.29648 0.64436 20436 ft 414 kts 102°
2026-04-21 17:43 51.28851 0.68894 20902 ft 420 kts 104°
2026-04-21 17:43 51.28003 0.73387 21319 ft 426 kts 104°
2026-04-21 17:43 51.27127 0.77945 21706 ft 432 kts 104°
2026-04-21 17:44 51.26240 0.82573 22081 ft 438 kts 103°
2026-04-21 17:44 51.25354 0.87250 22446 ft 444 kts 103°
2026-04-21 17:44 51.24468 0.91995 22807 ft 449 kts 103°
2026-04-21 17:44 51.23579 0.96807 23192 ft 453 kts 103°
2026-04-21 17:45 51.22691 1.01622 23793 ft 453 kts 103°
2026-04-21 17:45 51.21807 1.06393 24178 ft 456 kts 103°
2026-04-21 17:45 51.20892 1.11319 24511 ft 459 kts 103°
2026-04-21 17:45 51.19991 1.16163 24831 ft 463 kts 103°
2026-04-21 17:46 51.19066 1.21107 25151 ft 467 kts 103°
2026-04-21 17:46 51.18127 1.26079 25471 ft 470 kts 103°
2026-04-21 17:46 51.17179 1.31080 25782 ft 474 kts 103°
2026-04-21 17:46 51.16373 1.36177 26083 ft 474 kts 96°
2026-04-21 17:47 51.15995 1.41381 26394 ft 473 kts 89°
2026-04-21 17:47 51.15751 1.46622 26802 ft 474 kts 90°
2026-04-21 17:47 51.15503 1.51859 27174 ft 476 kts 89°
2026-04-21 17:47 51.15246 1.57138 27483 ft 479 kts 89°
2026-04-21 17:48 51.15075 1.60646 27681 ft 482 kts 89°
2026-04-21 17:48 51.14725 1.67808 28061 ft 486 kts 89°
2026-04-21 17:48 51.14550 1.71362 28247 ft 489 kts 89°
2026-04-21 17:48 51.14282 1.76784 28527 ft 492 kts 89°
2026-04-21 17:49 51.14010 1.82227 28835 ft 494 kts 89°
2026-04-21 17:49 51.13728 1.87699 29219 ft 495 kts 89°
2026-04-21 17:49 51.13442 1.93157 29723 ft 494 kts 90°
2026-04-21 17:49 51.13152 1.98575 30318 ft 490 kts 89°
2026-04-21 17:50 51.12861 2.03985 30723 ft 490 kts 89°
2026-04-21 17:50 51.12572 2.09371 31132 ft 488 kts 89°
2026-04-21 17:50 51.12285 2.14762 31558 ft 487 kts 90°
2026-04-21 17:50 51.11998 2.20129 31992 ft 486 kts 90°
2026-04-21 17:51 51.11711 2.25476 32430 ft 484 kts 90°
2026-04-21 17:51 51.11421 2.30816 32871 ft 483 kts 90°
2026-04-21 17:51 51.11127 2.36123 33311 ft 482 kts 90°
2026-04-21 17:51 51.10829 2.41418 33832 ft 479 kts 91°
2026-04-21 17:52 51.10530 2.46679 34320 ft 476 kts 91°
2026-04-21 17:52 51.10232 2.51917 34708 ft 474 kts 91°
2026-04-21 17:52 51.09934 2.57136 35070 ft 473 kts 91°
2026-04-21 17:52 51.09630 2.62342 35425 ft 472 kts 93°
2026-04-21 17:53 51.09043 2.67508 35758 ft 475 kts 102°
2026-04-21 17:53 51.08134 2.72561 36092 ft 475 kts 103°
2026-04-21 17:53 51.07223 2.77587 36418 ft 473 kts 103°
2026-04-21 17:53 51.06314 2.82620 36749 ft 472 kts 103°
2026-04-21 17:54 51.05409 2.87613 37121 ft 470 kts 103°
2026-04-21 17:54 51.04501 2.92610 37249 ft 471 kts 103°
2026-04-21 17:54 51.02663 3.02661 37278 ft 475 kts 104°
2026-04-21 17:55 51.00804 3.12737 37256 ft 475 kts 104°
2026-04-21 17:55 50.98934 3.22806 37272 ft 475 kts 104°
2026-04-21 17:56 50.97066 3.32864 37276 ft 475 kts 104°
2026-04-21 17:56 50.95194 3.42906 37265 ft 474 kts 104°
2026-04-21 17:57 50.93304 3.52931 37272 ft 475 kts 104°
2026-04-21 17:57 50.91413 3.62889 37275 ft 475 kts 104°
2026-04-21 17:58 50.89501 3.72915 37279 ft 475 kts 104°
2026-04-21 17:58 50.87573 3.82921 37299 ft 475 kts 104°
2026-04-21 17:59 50.85628 3.92894 37290 ft 474 kts 105°
2026-04-21 17:59 50.83679 4.02847 37291 ft 473 kts 105°
2026-04-21 18:00 50.81731 4.12782 37278 ft 473 kts 105°
2026-04-21 18:00 50.79772 4.22701 37262 ft 473 kts 105°
2026-04-21 18:01 50.77805 4.32636 37250 ft 474 kts 105°
2026-04-21 18:01 50.75832 4.42552 37247 ft 474 kts 105°
2026-04-21 18:02 50.73841 4.52495 37249 ft 475 kts 105°
2026-04-21 18:02 50.71837 4.62445 37255 ft 476 kts 105°
2026-04-21 18:03 50.69889 4.72417 37273 ft 476 kts 104°
2026-04-21 18:03 50.67972 4.82398 37270 ft 475 kts 104°
2026-04-21 18:04 50.65247 4.91896 37271 ft 479 kts 122°
2026-04-21 18:04 50.60849 4.99744 37270 ft 480 kts 135°
2026-04-21 18:05 50.56083 5.07106 37260 ft 480 kts 134°
2026-04-21 18:05 50.51322 5.14469 37270 ft 481 kts 134°
2026-04-21 18:06 50.46541 5.21827 37266 ft 481 kts 135°
2026-04-21 18:06 50.41784 5.29133 37264 ft 481 kts 135°
2026-04-21 18:07 50.36995 5.36466 37253 ft 481 kts 135°
2026-04-21 18:07 50.32192 5.43788 37257 ft 481 kts 135°
2026-04-21 18:08 50.27393 5.51089 37235 ft 482 kts 135°
2026-04-21 18:08 50.22578 5.58395 37256 ft 483 kts 135°
2026-04-21 18:09 50.17748 5.65685 37246 ft 483 kts 135°
2026-04-21 18:09 50.12921 5.72953 37250 ft 483 kts 135°
2026-04-21 18:10 50.08086 5.80213 37236 ft 483 kts 135°
2026-04-21 18:10 50.03248 5.87469 37229 ft 483 kts 135°
2026-04-21 18:11 49.98400 5.94721 37237 ft 484 kts 135°
2026-04-21 18:11 49.93542 6.01971 37237 ft 484 kts 135°
2026-04-21 18:12 49.88673 6.09193 37226 ft 484 kts 137°
2026-04-21 18:12 49.83112 6.15012 37219 ft 483 kts 156°
2026-04-21 18:13 49.76950 6.19199 37198 ft 484 kts 157°
2026-04-21 18:13 49.70788 6.23401 37193 ft 485 kts 157°
2026-04-21 18:14 49.61513 6.29661 37195 ft 485 kts 158°
2026-04-21 18:15 49.55288 6.33677 37194 ft 485 kts 159°
2026-04-21 18:15 49.49082 6.37602 37200 ft 486 kts 159°
2026-04-21 18:16 49.42858 6.41645 37197 ft 486 kts 157°
2026-04-21 18:16 49.36685 6.45897 37203 ft 486 kts 156°
2026-04-21 18:17 49.30508 6.50179 37189 ft 487 kts 157°
2026-04-21 18:17 49.24315 6.54398 37183 ft 487 kts 158°
2026-04-21 18:18 49.18098 6.58565 37186 ft 488 kts 158°
2026-04-21 18:18 49.11885 6.62727 37185 ft 488 kts 158°
2026-04-21 18:19 49.05663 6.66910 37180 ft 488 kts 158°
2026-04-21 18:19 48.99441 6.71081 37181 ft 489 kts 158°
2026-04-21 18:20 48.93219 6.75284 37185 ft 489 kts 158°
2026-04-21 18:20 48.87013 6.79546 37156 ft 490 kts 158°
2026-04-21 18:21 48.80791 6.83801 37162 ft 490 kts 158°
2026-04-21 18:21 48.74561 6.88033 37166 ft 491 kts 158°
2026-04-21 18:22 48.68316 6.92257 37168 ft 491 kts 158°
2026-04-21 18:22 48.62071 6.96474 37200 ft 491 kts 158°
2026-04-21 18:23 48.55865 7.00653 37195 ft 491 kts 158°
2026-04-21 18:23 48.49620 7.04836 37185 ft 491 kts 158°
2026-04-21 18:24 48.43370 7.09013 37166 ft 491 kts 158°
2026-04-21 18:24 48.37124 7.13179 37157 ft 491 kts 158°
2026-04-21 18:25 48.30867 7.17347 37143 ft 492 kts 158°
2026-04-21 18:25 48.24610 7.21508 37140 ft 492 kts 158°
2026-04-21 18:26 48.18336 7.25663 37116 ft 492 kts 159°
2026-04-21 18:26 48.12063 7.29801 37148 ft 493 kts 159°
2026-04-21 18:27 48.05826 7.33910 37147 ft 493 kts 159°
2026-04-21 18:27 47.99550 7.38044 37150 ft 493 kts 159°
2026-04-21 18:28 47.93259 7.42155 37128 ft 494 kts 159°
2026-04-21 18:28 47.86953 7.46265 37129 ft 494 kts 159°
2026-04-21 18:29 47.80648 7.50371 37103 ft 495 kts 159°
2026-04-21 18:29 47.74342 7.54472 37074 ft 495 kts 160°
2026-04-21 18:30 47.68064 7.58722 37101 ft 496 kts 157°
2026-04-21 18:30 47.62221 7.62925 37104 ft 497 kts 156°
2026-04-21 18:31 47.55997 7.67398 37098 ft 497 kts 157°
2026-04-21 18:31 47.49752 7.71782 37077 ft 497 kts 158°
2026-04-21 18:32 47.43498 7.76128 37080 ft 498 kts 158°
2026-04-21 18:32 47.37262 7.80467 37108 ft 498 kts 158°
2026-04-21 18:33 47.30985 7.84841 37100 ft 499 kts 158°
2026-04-21 18:33 47.25764 7.88469 37092 ft 499 kts 158°
2026-04-21 18:34 47.19475 7.92820 37096 ft 499 kts 158°
2026-04-21 18:34 47.13144 7.97181 37101 ft 499 kts 158°
2026-04-21 18:35 47.06895 8.01480 37077 ft 498 kts 159°
2026-04-21 18:35 47.03787 8.03624 37079 ft 487 kts 158°
2026-04-21 18:35 47.00745 8.05720 37079 ft 481 kts 159°
2026-04-21 18:36 46.94697 8.09857 37083 ft 479 kts 159°
2026-04-21 18:36 46.88661 8.13961 37049 ft 478 kts 159°
2026-04-21 18:37 46.82625 8.18069 37061 ft 478 kts 159°
2026-04-21 18:37 46.76596 8.22170 37058 ft 478 kts 159°
2026-04-21 18:38 46.70553 8.26270 37060 ft 479 kts 159°
2026-04-21 18:38 46.64551 8.30342 37037 ft 479 kts 159°
2026-04-21 18:39 46.58509 8.34421 37050 ft 479 kts 159°
2026-04-21 18:39 46.52472 8.38482 37053 ft 478 kts 159°
2026-04-21 18:40 46.46426 8.42542 37038 ft 478 kts 159°
2026-04-21 18:40 46.40388 8.46587 37035 ft 478 kts 160°
2026-04-21 18:41 46.34364 8.50615 37025 ft 476 kts 159°
2026-04-21 18:41 46.28348 8.54616 37014 ft 476 kts 159°
2026-04-21 18:42 46.22377 8.58576 36985 ft 475 kts 159°
2026-04-21 18:42 46.16375 8.62561 36981 ft 473 kts 159°
2026-04-21 18:43 46.10382 8.66531 36979 ft 473 kts 158°
2026-04-21 18:43 46.04502 8.70867 36989 ft 476 kts 155°
2026-04-21 18:44 45.98721 8.75560 37008 ft 478 kts 154°
2026-04-21 18:44 45.92914 8.80254 36997 ft 479 kts 155°
2026-04-21 18:45 45.87109 8.84789 36501 ft 478 kts 156°
2026-04-21 18:45 45.84136 8.87076 35870 ft 479 kts 156°
2026-04-21 18:45 45.81231 8.89304 35246 ft 481 kts 156°
2026-04-21 18:45 45.78277 8.91572 34655 ft 483 kts 156°
2026-04-21 18:46 45.75318 8.93854 34046 ft 485 kts 156°
2026-04-21 18:46 45.72492 8.96430 33357 ft 492 kts 143°
2026-04-21 18:46 45.70121 8.99973 32648 ft 497 kts 126°
2026-04-21 18:46 45.68436 9.04278 31936 ft 498 kts 112°
2026-04-21 18:47 45.66928 9.08763 31040 ft 504 kts 124°
2026-04-21 18:47 45.64597 9.12456 30360 ft 500 kts 147°
2026-04-21 18:47 45.61588 9.14816 29755 ft 488 kts 169°
2026-04-21 18:47 45.58311 9.15685 29060 ft 474 kts 185°
2026-04-21 18:48 45.55038 9.15611 28422 ft 467 kts 194°
2026-04-21 18:48 45.51862 9.14868 27796 ft 459 kts 204°
2026-04-21 18:48 45.48841 9.13534 27194 ft 456 kts 208°
2026-04-21 18:48 45.45814 9.12038 26589 ft 463 kts 209°
2026-04-21 18:49 45.42789 9.10450 26005 ft 462 kts 210°
2026-04-21 18:49 45.39797 9.08828 25404 ft 459 kts 210°
2026-04-21 18:49 45.37827 9.07747 25029 ft 456 kts 210°
2026-04-21 18:49 45.33882 9.05582 24291 ft 452 kts 210°
2026-04-21 18:50 45.30954 9.03990 23751 ft 449 kts 210°
2026-04-21 18:50 45.28039 9.02426 23155 ft 446 kts 210°
2026-04-21 18:50 45.25145 9.00891 22514 ft 442 kts 209°
2026-04-21 18:50 45.22274 8.99380 21870 ft 437 kts 208°
2026-04-21 18:51 45.19477 8.97910 21280 ft 432 kts 208°
2026-04-21 18:51 45.16680 8.96442 20979 ft 428 kts 208°
2026-04-21 18:51 45.13896 8.94974 20938 ft 426 kts 208°
2026-04-21 18:51 45.11111 8.93495 20951 ft 427 kts 208°
2026-04-21 18:52 45.08331 8.92014 20945 ft 427 kts 208°
2026-04-21 18:52 45.05551 8.90535 20951 ft 427 kts 208°
2026-04-21 18:52 45.02782 8.89070 20614 ft 422 kts 208°
2026-04-21 18:52 45.00040 8.87627 19969 ft 419 kts 208°
2026-04-21 18:53 44.97323 8.86199 19372 ft 415 kts 208°
2026-04-21 18:53 44.94625 8.84786 18807 ft 411 kts 208°
2026-04-21 18:53 44.91967 8.83397 18463 ft 403 kts 208°
2026-04-21 18:53 44.89382 8.82054 18355 ft 388 kts 208°
2026-04-21 18:54 44.86900 8.80765 18228 ft 373 kts 208°
2026-04-21 18:54 44.84503 8.79520 18041 ft 361 kts 208°
2026-04-21 18:54 44.82034 8.78771 17644 ft 370 kts 188°
2026-04-21 18:54 44.79478 8.79160 17216 ft 377 kts 175°
2026-04-21 18:55 44.77746 8.79661 16912 ft 376 kts 174°
2026-04-21 18:55 44.74349 8.80678 16340 ft 371 kts 173°
2026-04-21 18:55 44.71868 8.81415 16065 ft 364 kts 173°
2026-04-21 18:55 44.69434 8.82140 15929 ft 353 kts 174°
2026-04-21 18:56 44.67068 8.82852 15748 ft 344 kts 173°
2026-04-21 18:56 44.64742 8.83550 15446 ft 340 kts 173°
2026-04-21 18:56 44.62436 8.84231 15119 ft 337 kts 174°
2026-04-21 18:56 44.60143 8.84899 14784 ft 334 kts 173°
2026-04-21 18:57 44.57877 8.85552 14437 ft 332 kts 174°
2026-04-21 18:57 44.55628 8.86195 14131 ft 329 kts 173°
2026-04-21 18:57 44.53388 8.86823 13810 ft 327 kts 173°
2026-04-21 18:57 44.51160 8.87443 13443 ft 324 kts 174°
2026-04-21 18:58 44.48956 8.88050 13063 ft 322 kts 173°
2026-04-21 18:58 44.46765 8.88637 12694 ft 320 kts 174°
2026-04-21 18:58 44.44583 8.89212 12370 ft 317 kts 173°
2026-04-21 18:58 44.42585 8.89731 12078 ft 315 kts 173°
2026-04-21 18:59 44.40433 8.90284 11755 ft 312 kts 173°
2026-04-21 18:59 44.38300 8.90822 11424 ft 310 kts 173°
2026-04-21 18:59 44.36186 8.91343 11101 ft 308 kts 173°
2026-04-21 18:59 44.34111 8.91843 10785 ft 305 kts 173°
2026-04-21 19:00 44.31996 8.92341 10465 ft 303 kts 173°
2026-04-21 19:00 44.29953 8.92813 10153 ft 301 kts 173°
2026-04-21 19:00 44.27895 8.93277 9879 ft 299 kts 173°
2026-04-21 19:00 44.25844 8.93730 9521 ft 297 kts 174°
2026-04-21 19:01 44.23806 8.94184 9180 ft 295 kts 173°
2026-04-21 19:01 44.21787 8.94629 8847 ft 293 kts 173°
2026-04-21 19:01 44.19779 8.95064 8525 ft 291 kts 173°
2026-04-21 19:01 44.17787 8.95490 8194 ft 288 kts 173°
2026-04-21 19:02 44.15809 8.95905 7882 ft 286 kts 173°
2026-04-21 19:02 44.13846 8.96311 7570 ft 284 kts 173°
2026-04-21 19:02 44.11909 8.96706 7405 ft 276 kts 174°
2026-04-21 19:02 44.10036 8.97086 7280 ft 268 kts 174°
2026-04-21 19:03 44.08223 8.97454 7157 ft 259 kts 174°
2026-04-21 19:03 44.06486 8.97806 7034 ft 251 kts 174°
2026-04-21 19:03 44.04791 8.98152 6917 ft 242 kts 174°
2026-04-21 19:03 44.03181 8.98694 6742 ft 238 kts 154°
2026-04-21 19:04 44.01966 9.00200 6480 ft 237 kts 121°
2026-04-21 19:04 44.01507 9.02373 6202 ft 236 kts 88°
2026-04-21 19:04 44.01773 9.04608 6038 ft 236 kts 75°
2026-04-21 19:04 44.02197 9.06811 6036 ft 237 kts 74°
2026-04-21 19:05 44.02642 9.09019 6045 ft 237 kts 73°
2026-04-21 19:05 44.03084 9.11223 6041 ft 236 kts 73°
2026-04-21 19:05 44.03523 9.13421 6042 ft 236 kts 73°
2026-04-21 19:05 44.03961 9.15620 6042 ft 236 kts 74°
2026-04-21 19:06 44.04400 9.17820 6036 ft 236 kts 73°
2026-04-21 19:06 44.04838 9.20016 6037 ft 236 kts 73°
2026-04-21 19:06 44.05274 9.22215 6040 ft 235 kts 73°
2026-04-21 19:06 44.05702 9.24400 6042 ft 234 kts 73°
2026-04-21 19:07 44.06129 9.26584 6044 ft 234 kts 73°
2026-04-21 19:07 44.06556 9.28772 6045 ft 234 kts 73°
2026-04-21 19:07 44.06982 9.30955 6044 ft 234 kts 73°
2026-04-21 19:07 44.07409 9.33142 6042 ft 234 kts 73°
2026-04-21 19:08 44.07836 9.35328 6037 ft 234 kts 73°
2026-04-21 19:08 44.08262 9.37513 6037 ft 234 kts 73°
2026-04-21 19:08 44.08688 9.39701 6041 ft 234 kts 73°
2026-04-21 19:08 44.09114 9.41886 6041 ft 234 kts 73°
2026-04-21 19:09 44.09540 9.44074 6042 ft 234 kts 73°
2026-04-21 19:09 44.09966 9.46259 6044 ft 234 kts 73°
2026-04-21 19:09 44.10389 9.48441 6042 ft 233 kts 73°
2026-04-21 19:09 44.10809 9.50616 6040 ft 233 kts 74°
2026-04-21 19:10 44.11228 9.52786 6040 ft 233 kts 74°
2026-04-21 19:10 44.11648 9.54962 6041 ft 232 kts 73°
2026-04-21 19:10 44.12062 9.57106 6037 ft 232 kts 73°
2026-04-21 19:10 44.12481 9.59279 6037 ft 232 kts 74°
2026-04-21 19:11 44.12982 9.61411 6027 ft 231 kts 58°
2026-04-21 19:11 44.14090 9.62964 6028 ft 228 kts 26°
2026-04-21 19:11 44.15613 9.63414 6030 ft 226 kts 353°
2026-04-21 19:11 44.17053 9.62624 6030 ft 225 kts 322°
2026-04-21 19:12 44.17848 9.61652 6040 ft 226 kts 316°
2026-04-21 19:12 44.19299 9.59591 6035 ft 220 kts 314°
2026-04-21 19:12 44.20321 9.58108 6034 ft 204 kts 314°
2026-04-21 19:12 44.21269 9.56732 6032 ft 190 kts 314°
2026-04-21 19:13 44.22164 9.55426 6040 ft 184 kts 314°
2026-04-21 19:13 44.23043 9.54141 6041 ft 183 kts 314°
2026-04-21 19:13 44.23922 9.52859 6041 ft 183 kts 314°
2026-04-21 19:13 44.24805 9.51575 6038 ft 183 kts 314°
2026-04-21 19:14 44.25688 9.50288 6044 ft 184 kts 314°
2026-04-21 19:14 44.26568 9.48997 6043 ft 183 kts 314°
2026-04-21 19:14 44.27447 9.47707 6044 ft 184 kts 314°
2026-04-21 19:14 44.28329 9.46415 6046 ft 184 kts 314°
2026-04-21 19:15 44.29165 9.45061 6044 ft 184 kts 304°
2026-04-21 19:15 44.29974 9.43668 6045 ft 185 kts 313°
2026-04-21 19:15 44.30863 9.42362 6043 ft 185 kts 314°
2026-04-21 19:15 44.31668 9.41001 6043 ft 184 kts 295°
2026-04-21 19:16 44.32085 9.39312 6043 ft 185 kts 284°
2026-04-21 19:16 44.32331 9.37546 6039 ft 185 kts 280°
2026-04-21 19:16 44.32553 9.35770 6039 ft 186 kts 281°
2026-04-21 19:16 44.32781 9.33996 6038 ft 185 kts 279°
2026-04-21 19:17 44.32997 9.30402 6041 ft 186 kts 274°
2026-04-21 19:17 44.33072 9.28601 6041 ft 186 kts 273°
2026-04-21 19:17 44.33051 9.26795 6041 ft 186 kts 269°
2026-04-21 19:18 44.33010 9.24987 6036 ft 186 kts 269°
2026-04-21 19:18 44.33022 9.23176 5909 ft 186 kts 279°
2026-04-21 19:18 44.33279 9.21414 5690 ft 185 kts 281°
2026-04-21 19:18 44.33434 9.19636 5424 ft 185 kts 275°
2026-04-21 19:19 44.33609 9.17823 5019 ft 192 kts 282°
2026-04-21 19:19 44.33941 9.16003 4725 ft 193 kts 286°
2026-04-21 19:19 44.34332 9.14215 4424 ft 192 kts 288°
2026-04-21 19:19 44.34734 9.12453 4116 ft 187 kts 288°
2026-04-21 19:20 44.35121 9.10775 3871 ft 182 kts 288°
2026-04-21 19:20 44.35508 9.09095 3615 ft 181 kts 288°
2026-04-21 19:20 44.35892 9.07430 3370 ft 179 kts 288°
2026-04-21 19:20 44.36274 9.05775 3117 ft 178 kts 288°
2026-04-21 19:21 44.36654 9.04128 2861 ft 178 kts 288°
2026-04-21 19:21 44.37030 9.02494 2626 ft 177 kts 288°
2026-04-21 19:21 44.37407 9.00854 2366 ft 177 kts 288°
2026-04-21 19:21 44.37783 8.99221 2117 ft 176 kts 288°
2026-04-21 19:22 44.38158 8.97588 1866 ft 176 kts 288°
2026-04-21 19:22 44.38531 8.95965 1614 ft 173 kts 287°
2026-04-21 19:22 44.38879 8.94458 1339 ft 154 kts 287°
2026-04-21 19:22 44.39087 8.93542 1197 ft 146 kts 287°
2026-04-21 19:23 44.39389 8.92260 1014 ft 141 kts 290°
2026-04-21 19:23 44.39768 8.91080 836 ft 140 kts 294°
2026-04-21 19:23 44.40103 8.89808 673 ft 139 kts 284°
2026-04-21 19:23 44.40353 8.88500 465 ft 139 kts 284°
2026-04-21 19:24 44.40601 8.87191 278 ft 139 kts 284°
2026-04-21 19:24 44.40859 8.85883 90 ft 140 kts 285°
2026-04-21 19:24 44.41112 8.84646 22 ft 117 kts 282°
2026-04-21 19:24 44.41278 8.83766 20 ft 69 kts 285°
2026-04-21 19:25 44.41365 8.83312 21 ft 32 kts 285°
2026-04-21 19:25 44.41474 8.83093 21 ft 20 kts 328°
2026-04-21 19:25 44.41537 8.83197 21 ft 18 kts 101°
2026-04-21 19:25 44.41504 8.83384 20 ft 21 kts 105°
2026-04-21 19:26 44.41474 8.83548 20 ft 16 kts 104°
2026-04-21 19:26 44.41441 8.83715 22 ft 19 kts 107°
2026-04-21 19:26 44.41417 8.83834 20 ft 19 kts 105°
2026-04-21 19:26 44.41392 8.83962 20 ft 15 kts 105°
2026-04-21 19:27 44.41363 8.84116 20 ft 18 kts 105°
2026-04-21 19:27 44.41326 8.84300 22 ft 21 kts 106°
2026-04-21 19:27 44.41336 8.84446 21 ft 16 kts 53°
2026-04-21 19:27 44.41409 8.84580 20 ft 17 kts 63°
2026-04-21 19:28 44.41392 8.84743 20 ft 17 kts 105°
2026-04-21 19:28 44.41361 8.84901 20 ft 16 kts 105°
2026-04-21 19:28 44.41336 8.85048 20 ft 10 kts 106°
2026-04-21 19:28 44.41365 8.85088 20 ft 7 kts 14°
2026-04-21 19:29 44.41389 8.85096 20 ft 1 kts 14°
2026-04-21 19:29 44.41391 8.85097 20 ft 0 kts 14°